| time (UTC) | temp F | wind direction | speed MPH | gust MPH | rain 1hr in | rain 24hr in | rain mn in | humidity % | barometer mb |
| 20260506230050 | 54 | 360 | 11.0 | 20.0 | 0.00 | 0.00 | 0.00 | 34 | 977.0 |
| 20260506224532 | 54 | 360 | 11.0 | 20.0 | 0.00 | 0.00 | 0.00 | 34 | 977.1 |
| 20260506223033 | 54 | 6 | 12.0 | 22.0 | 0.00 | 0.00 | 0.00 | 33 | 976.8 |
| 20260506221530 | 54 | 5 | 10.0 | 22.0 | 0.00 | 0.00 | 0.00 | 35 | 977.0 |
| 20260506220035 | 54 | 6 | 10.0 | 21.0 | 0.00 | 0.00 | 0.00 | 34 | 976.9 |
| 20260506214527 | 54 | 6 | 11.0 | 22.0 | 0.00 | 0.00 | 0.00 | 36 | 977.1 |
| 20260506213026 | 53 | 6 | 7.0 | 17.0 | 0.00 | 0.00 | 0.00 | 38 | 977.0 |
| 20260506211525 | 53 | 6 | 9.0 | 21.0 | 0.00 | 0.00 | 0.00 | 37 | 977.2 |
| 20260506210044 | 53 | 360 | 13.0 | 20.0 | 0.00 | 0.00 | 0.00 | 35 | 977.4 |
| 20260506204523 | 53 | 360 | 12.0 | 22.0 | 0.00 | 0.00 | 0.00 | 39 | 977.6 |
| 20260506203021 | 52 | 6 | 11.0 | 19.0 | 0.00 | 0.00 | 0.00 | 38 | 977.9 |
| 20260506201522 | 52 | 6 | 8.0 | 18.0 | 0.00 | 0.00 | 0.00 | 41 | 977.9 |
| 20260506200018 | 52 | 5 | 7.0 | 15.0 | 0.00 | 0.00 | 0.00 | 42 | 977.9 |
| 20260506194518 | 50 | 6 | 9.0 | 18.0 | 0.00 | 0.00 | 0.00 | 42 | 978.1 |
| 20260506193025 | 51 | 360 | 12.0 | 21.0 | 0.00 | 0.00 | 0.00 | 45 | 978.0 |
| 20260506191515 | 52 | 5 | 9.0 | 17.0 | 0.00 | 0.00 | 0.00 | 42 | 978.1 |
| 20260506190014 | 51 | 7 | 10.0 | 18.0 | 0.00 | 0.00 | 0.00 | 40 | 978.3 |
| 20260506184511 | 50 | 5 | 8.0 | 23.0 | 0.00 | 0.00 | 0.00 | 43 | 978.2 |
| 20260506183009 | 50 | 360 | 12.0 | 22.0 | 0.00 | 0.00 | 0.00 | 41 | 978.4 |
| 20260506181511 | 49 | 360 | 5.0 | 18.0 | 0.00 | 0.00 | 0.00 | 45 | 978.5 |
| 20260506180010 | 49 | 360 | 8.0 | 23.0 | 0.00 | 0.00 | 0.00 | 44 | 978.6 |
| 20260506174507 | 50 | 6 | 10.0 | 18.0 | 0.00 | 0.00 | 0.00 | 42 | 978.8 |
| 20260506173110 | 49 | 360 | 8.0 | 15.0 | 0.00 | 0.00 | 0.00 | 45 | 978.9 |
| 20260506171504 | 48 | 360 | 12.0 | 24.0 | 0.00 | 0.00 | 0.00 | 43 | 978.8 |
| 20260506170003 | 48 | 360 | 12.0 | 23.0 | 0.00 | 0.00 | 0.00 | 43 | 978.9 |
| 20260506164509 | 47 | 360 | 12.0 | 19.0 | 0.00 | 0.00 | 0.00 | 43 | 978.9 |
| 20260506163111 | 48 | 360 | 11.0 | 19.0 | 0.00 | 0.00 | 0.00 | 46 | 978.9 |
| 20260506161559 | 47 | 360 | 12.0 | 21.0 | 0.00 | 0.00 | 0.00 | 46 | 978.8 |
| 20260506160122 | 47 | 360 | 5.0 | 14.0 | 0.00 | 0.00 | 0.00 | 50 | 978.8 |
| 20260506154559 | 47 | 360 | 9.0 | 20.0 | 0.00 | 0.00 | 0.00 | 47 | 978.7 |
| 20260506153055 | 47 | 6 | 6.0 | 15.0 | 0.00 | 0.00 | 0.00 | 47 | 978.5 |
| 20260506151557 | 47 | 4 | 5.0 | 12.0 | 0.00 | 0.00 | 0.00 | 50 | 978.6 |
| 20260506144551 | 46 | 4 | 6.0 | 12.0 | 0.00 | 0.00 | 0.00 | 50 | 978.6 |
| 20260506143049 | 46 | 6 | 3.0 | 12.0 | 0.00 | 0.00 | 0.00 | 52 | 978.4 |
| 20260506141546 | 45 | 6 | 5.0 | 10.0 | 0.00 | 0.00 | 0.00 | 49 | 978.3 |
| 20260506140043 | 44 | 6 | 5.0 | 16.0 | 0.00 | 0.00 | 0.00 | 51 | 978.4 |
| 20260506134540 | 44 | 6 | 4.0 | 8.0 | 0.00 | 0.00 | 0.00 | 53 | 978.2 |
| 20260506133049 | 43 | 5 | 3.0 | 7.0 | 0.00 | 0.00 | 0.00 | 56 | 978.1 |
| 20260506131537 | 42 | 5 | 3.0 | 6.0 | 0.00 | 0.00 | 0.00 | 57 | 978.0 |
| 20260506130035 | 41 | 6 | 1.0 | 5.0 | 0.00 | 0.00 | 0.00 | 60 | 977.9 |
| 20260506124535 | 40 | 6 | 2.0 | 4.0 | 0.00 | 0.00 | 0.00 | 64 | 977.9 |
| 20260506123034 | 39 | 6 | 2.0 | 5.0 | 0.00 | 0.00 | 0.00 | 66 | 977.8 |
| 20260506121532 | 37 | 360 | 2.0 | 5.0 | 0.00 | 0.00 | 0.00 | 69 | 977.5 |
| 20260506120049 | 36 | 6 | 2.0 | 6.0 | 0.00 | 0.00 | 0.00 | 71 | 977.4 |
| 20260506114527 | 36 | 6 | 0.0 | 4.0 | 0.00 | 0.00 | 0.00 | 69 | 977.2 |
| 20260506113024 | 37 | 6 | 0.0 | 4.0 | 0.00 | 0.00 | 0.00 | 68 | 977.0 |
| 20260506111522 | 37 | 6 | 2.0 | 4.0 | 0.00 | 0.00 | 0.00 | 66 | 976.6 |
| 20260506110024 | 38 | 6 | 2.0 | 5.0 | 0.00 | 0.00 | 0.00 | 65 | 976.6 |
| 20260506104531 | 38 | 6 | 2.0 | 5.0 | 0.00 | 0.00 | 0.00 | 65 | 976.4 |
| 20260506103035 | 38 | 6 | 2.0 | 4.0 | 0.00 | 0.00 | 0.00 | 65 | 976.2 |
| 20260506101516 | 38 | 5 | 1.0 | 4.0 | 0.00 | 0.00 | 0.00 | 65 | 976.3 |
| 20260506100016 | 39 | 6 | 2.0 | 4.0 | 0.00 | 0.00 | 0.00 | 64 | 976.2 |
| 20260506094514 | 39 | 6 | 2.0 | 4.0 | 0.00 | 0.00 | 0.00 | 63 | 976.3 |
| 20260506093019 | 39 | 5 | 1.0 | 6.0 | 0.00 | 0.00 | 0.00 | 63 | 976.1 |
| 20260506091516 | 39 | 6 | 1.0 | 5.0 | 0.00 | 0.00 | 0.00 | 64 | 976.0 |
| 20260506090009 | 38 | 5 | 0.0 | 3.0 | 0.00 | 0.00 | 0.00 | 64 | 975.8 |
| 20260506084506 | 39 | 6 | 1.0 | 3.0 | 0.00 | 0.00 | 0.00 | 64 | 975.8 |
| 20260506083002 | 39 | 6 | 1.0 | 4.0 | 0.00 | 0.00 | 0.00 | 62 | 975.4 |
| 20260506081502 | 39 | 6 | 1.0 | 4.0 | 0.00 | 0.00 | 0.00 | 60 | 975.5 |
| 20260506080104 | 39 | 6 | 1.0 | 4.0 | 0.00 | 0.00 | 0.00 | 61 | 975.6 |
| 20260506073054 | 40 | 6 | 0.0 | 4.0 | 0.00 | 0.00 | 0.00 | 58 | 975.3 |
| 20260506071557 | 40 | 6 | 1.0 | 4.0 | 0.00 | 0.00 | 0.00 | 58 | 975.5 |
| 20260506061545 | 42 | 6 | 0.0 | 4.0 | 0.00 | 0.00 | 0.00 | 55 | 975.2 |
| 20260506044537 | 44 | 6 | 2.0 | 6.0 | 0.00 | 0.00 | 0.00 | 51 | 974.3 |
| 20260506043031 | 44 | 6 | 3.0 | 7.0 | 0.00 | 0.00 | 0.00 | 51 | 974.3 |
| 20260506041531 | 44 | 6 | 2.0 | 5.0 | 0.00 | 0.00 | 0.00 | 50 | 974.3 |
| 20260506040034 | 45 | 6 | 1.0 | 6.0 | 0.00 | 0.00 | 0.00 | 49 | 974.1 |
| 20260506034529 | 45 | 6 | 3.0 | 6.0 | 0.00 | 0.00 | 0.00 | 48 | 973.9 |
| 20260506033026 | 46 | 6 | 2.0 | 6.0 | 0.00 | 0.00 | 0.00 | 48 | 973.7 |
| 20260506031529 | 46 | 8 | 1.0 | 4.0 | 0.00 | 0.00 | 0.00 | 47 | 973.8 |
| 20260506030023 | 47 | 360 | 1.0 | 5.0 | 0.00 | 0.00 | 0.00 | 46 | 973.7 |
| 20260506024523 | 48 | 360 | 0.0 | 3.0 | 0.00 | 0.00 | 0.00 | 46 | 973.6 |
| 20260506023035 | 48 | 7 | 1.0 | 5.0 | 0.00 | 0.00 | 0.00 | 44 | 973.4 |
| 20260506021533 | 49 | 360 | 0.0 | 4.0 | 0.00 | 0.00 | 0.00 | 43 | 973.2 |
| 20260506020025 | 49 | 360 | 2.0 | 6.0 | 0.00 | 0.00 | 0.00 | 42 | 973.1 |
| 20260506014519 | 50 | 360 | 3.0 | 11.0 | 0.00 | 0.00 | 0.00 | 41 | 972.9 |
| 20260506013019 | 51 | 360 | 3.0 | 10.0 | 0.00 | 0.00 | 0.00 | 41 | 972.6 |
| 20260506011515 | 51 | 360 | 2.0 | 9.0 | 0.00 | 0.00 | 0.00 | 41 | 972.4 |
| 20260506010015 | 52 | 360 | 4.0 | 9.0 | 0.00 | 0.00 | 0.00 | 40 | 972.1 |
| 20260506004514 | 52 | 360 | 3.0 | 12.0 | 0.00 | 0.00 | 0.00 | 40 | 972.0 |
| 20260506003014 | 53 | 360 | 3.0 | 9.0 | 0.00 | 0.00 | 0.00 | 40 | 971.8 |
| 20260506001513 | 53 | 360 | 3.0 | 15.0 | 0.00 | 0.00 | 0.00 | 40 | 971.7 |
| 20260506000012 | 53 | 360 | 6.0 | 15.0 | 0.00 | 0.00 | 0.00 | 40 | 971.7 |
| 20260505234514 | 54 | 360 | 5.0 | 12.0 | 0.00 | 0.00 | 0.00 | 37 | 971.5 |
| 20260505233011 | 54 | 360 | 3.0 | 12.0 | 0.00 | 0.00 | 0.00 | 38 | 971.2 |
| 20260505231522 | 54 | 360 | 6.0 | 12.0 | 0.00 | 0.00 | 0.00 | 37 | 971.3 |